www.pogodaiklimat.ru

Погода и климат >> Архив погоды >> Индия >> Махараштра >> Ратнагири


ПОГОДА в Ратнагири

  • Прогноз погоды в Ратнагири
  • Монитор погоды в Ратнагири

АРХИВ ПОГОДЫ в Ратнагири

Время (UTC), дата Ветер
(напр.,м/с)
 
Видим.   Явления Облачность Т
(С)
Тd
(С)
f
(%)
Тe
(С)
Тes
(С)
Комфортность P
(гПа)
Po
(гПа)
Тmin
(С)
Tmax
(С)
R
(мм)
R24
(мм)
S
(см)
21 9.09 З 3 4000 м {дождь} 8/6 360 м
[Frnb As op]
+26.2 +24.5 90 +37 +37 очень
душно
1002.2 994.6 11
00 10.09 штиль 0 4000 м {дождь} 8/8 360 м
[Frnb As op]
+26.0 +25.2 95 +37 +37 очень
душно
1002.2 994.6 12
03 10.09 З 1 2000 м слаб. дождь 10/8 360 м
[Frnb As op]
+26.2 +25.3 95 +38 +38 очень
душно
1003.2 995.6 +24.9 15
06 10.09 З 4 4000 м {дождь} 10/5 600 м
[Sc diur, vesp Ac trans]
+28.4 +25.6 85 +42 +45 опасность
перегрева
1003.6 996.0
09 10.09 З 3 10 км 9/8 540 м
[Sc diur, vesp Ac As]
+29.0 +25.6 82 +43 +45 опасность
перегрева
1002.0 994.4
12 10.09 З 2 10 км 8/6 540 м
[Sc diur, vesp Ac As]
+28.0 +24.9 83 +40 +41 очень
душно
1001.7 994.1 +30.0
15 10.09 З 1 4000 м 6/6 360 м
[St]
+27.0 +25.0 89 +39 +39 очень
душно
1004.0 996.4
18 10.09 З 1 4000 м 5/5 360 м
[St]
+26.4 +25.0 92 +38 +38 очень
душно
1004.8 997.1
21 10.09 штиль 0 4000 м 9/8 540 м
[Cu Sc Ac trans]
+25.2 +23.4 90 +34 +34 очень
душно
1003.4 995.7
00 11.09 штиль 0 4000 м {дождь} 6/6 360 м
[St]
+25.0 +24.1 95 +34 +34 очень
душно
1003.6 995.9 3
03 11.09 штиль 0 4000 м 8/5 540 м
[Sc diur, vesp Ac trans]
+26.4 +25.0 92 +38 +40 очень
душно
1005.1 997.4 +24.6 3
06 11.09 З 3 4000 м 9/8 360 м
[Frnb Ac As]
+28.6 +25.8 85 +43 +45 опасность
перегрева
1005.8 998.2
09 11.09 З 2 4000 м в посл. час дождь 9/8 360 м
[Frnb As trans]
+27.4 +25.4 89 +40 +43 очень
душно
1004.6 997.0 2
12 11.09 З 2 4000 м {дождь} 8/8 360 м
[Frnb]
+28.4 +25.3 83 +41 +42 опасность
перегрева
1004.2 996.6 +29.4 2
15 11.09 З 1 4000 м {дождь} 4/3 600 м
[Sc diur, vesp Cs]
+26.6 +24.9 90 +38 +38 очень
душно
1006.0 998.3 3
18 11.09 З 1 4000 м {дождь} 5/5 600 м
[Sc diur, vesp]
+26.4 +25.3 94 +38 +38 очень
душно
1006.8 999.1 3
21 11.09 СЗ 1 4000 м 10/8 600 м
[Sc diur, vesp Ac As]
+26.2 +25.1 94 +38 +38 очень
душно
1005.3 997.6 3
00 12.09 штиль 0 4000 м 8/6 360 м
[St As trans]
+26.2 +25.1 94 +38 +38 очень
душно
1005.0 997.3 3
03 12.09 З 2 4000 м 8/6 360 м
[St As trans]
+27.4 +25.4 89 +40 +41 очень
душно
1007.1 999.5 +25.8 3
06 12.09 З 1 4000 м в посл. час дождь 8/8 360 м
[Frnb]
+28.0 +25.2 85 +41 +45 опасность
перегрева
1007.9 1000.3 0.0
09 12.09 СЗ 2 4000 м {дождь} 9/8 540 м
[Cu Sc Ac trans]
+29.4 +25.4 79 +43 +45 опасность
перегрева
1005.7 998.1 0.2
12 12.09 СЗ 2 4000 м слаб. морось {дождь} 9/8 360 м
[Frnb As trans]
+27.4 +24.8 86 +39 +39 очень
душно
1005.3 997.7 +29.9 0.2
15 12.09 З 1 4000 м в посл. час дождь 10/8 360 м
[Frnb Ac As]
+25.8 +24.6 93 +36 +36 очень
душно
1006.7 999.0 3
18 12.09 З 3 4000 м в посл. час дождь 10/9 360 м
[Frnb As trans]
+26.4 +25.3 94 +38 +38 очень
душно
1007.3 999.6 6
21 12.09 З 3 4000 м 10/9 360 м
[Frnb Ac As]
+26.6 +24.9 90 +38 +38 очень
душно
1005.9 998.2 6
00 13.09 З 1 4000 м 4/4 540 м
[Sc]
+26.6 +25.2 92 +38 +38 очень
душно
1006.1 998.4 6
03 13.09 штиль 0 4000 м в посл. час дождь 10/6 360 м
[Frnb As trans]
+26.4 +25.3 94 +38 +39 очень
душно
1008.1 1000.4 +24.2 7
06 13.09 СЗ 2 4000 м в посл. час дождь {морось} 10/9 360 м
[Frnb As trans]
+27.2 +26.1 94 +41 +42 опасность
перегрева
1007.9 1000.2 6
09 13.09 З 2 10 км в посл. час дождь 10/8 360 м
[Frnb Ac As]
+28.0 +25.7 87 +41 +42 опасность
перегрева
1006.0 998.4 11
12 13.09 З 2 10 км {дождь} 9/8 360 м
[Frnb Ac und Cs]
+27.4 +25.1 87 +39 +40 очень
душно
1005.2 997.6 +28.8 11
15 13.09 З 1 4000 м {дождь} 10/8 360 м
[Frnb As trans]
+27.0 +25.0 89 +39 +39 очень
душно
1006.2 998.6 13
18 13.09 З 2 4000 м {дождь} 8/6 360 м
[Frnb Ac cuf]
+26.4 +25.3 94 +38 +38 очень
душно
1007.1 999.4 15
21 13.09 З 2 4000 м в посл. час дождь 9/8 360 м
[Frnb As trans]
+26.2 +25.1 94 +38 +38 очень
душно
1005.3 997.6 16
00 14.09 З 3 4000 м {дождь} 8/8 360 м
[Frnb As op]
+26.4 +24.7 90 +37 +37 очень
душно
1005.5 997.8 17
03 14.09 СЗ 2 4000 м в посл. час дождь 10/8 360 м
[Frnb Ac As]
+26.4 +24.4 89 +37 +37 очень
душно
1007.3 999.6 +24.6 18
06 14.09 З 3 4000 м {дождь} 10/8 360 м
[Frnb Ac As]
+27.6 +24.4 83 +39 +40 очень
душно
1007.7 1000.1
09 14.09 З 3 4000 м 10/9 800 м
[Frnb Ac As]
+28.4 +25.9 86 +42 +43 опасность
перегрева
1005.5 997.9
12 14.09 З 5 4000 м {дождь} 8/6 360 м
[Frnb Ac As]
+28.2 +25.7 86 +42 +42 опасность
перегрева
1005.3 997.7 +29.9 2
15 14.09 СЗ 2 4000 м {дождь} 8/6 360 м
[Frnb Ac trans]
+26.4 +25.3 94 +38 +38 очень
душно
1006.7 999.0 3
18 14.09 СЗ 4 4000 м слаб. морось {дождь} 9/8 360 м
[Frnb As trans]
+25.0 +24.1 95 +34 +34 очень
душно
1007.1 999.4 3
21 14.09 штиль 0 4000 м {морось} 10/8 360 м
[Frnb As trans]
+26.0 +24.9 94 +37 +37 очень
душно
1005.4 997.7 3
00 15.09 С 1 4000 м слаб. дождь {морось} 10/8 360 м
[Frnb As trans]
+25.0 +24.1 95 +34 +34 очень
душно
1005.6 997.9 10
03 15.09 СЗ 3 4000 м {дождь} 8/6 540 м
[Sc diur, vesp Ac As]
+27.4 +24.8 86 +39 +40 очень
душно
1007.3 999.7 +24.1 10
06 15.09 З 3 4000 м {дождь} 8/6 360 м
[Frnb Ac As]
+29.0 +26.5 86 +44 +49 опасность
перегрева
1007.4 999.8 2
09 15.09 СЗ 3 10 км 9/8 540 м
[Sc diur, vesp Ac trans]
+29.4 +26.0 82 +44 +46 опасность
перегрева
1005.4 997.8 2
12 15.09 СЗ 2 4000 м в посл. час дождь 8/6 360 м
[Frnb As trans]
+27.4 +25.4 89 +40 +41 очень
душно
1005.2 997.6 +30.1 5
15 15.09 СЗ 2 4000 м {дождь} 8/5 360 м
[Frnb Ac As]
+25.8 +24.9 95 +37 +37 очень
душно
1005.2 997.5 9
18 15.09 штиль 0 4000 м в посл. час дождь 10/4 360 м
[Frnb As op]
+25.0 +24.4 96 +35 +35 очень
душно
1007.1 999.4 21
21 15.09 В 2 4000 м слаб. морось {дождь} 9/3 360 м
[Frnb Ac As]
+23.6 +23.0 96 +31 +31 очень
душно
1005.9 998.2 27
00 16.09 штиль 0 4000 м в посл. час дождь {морось} 10/3 360 м
[Frnb Ac As]
+24.2 +23.6 96 +33 +33 очень
душно
1005.7 998.0 27
03 16.09 штиль 0 4000 м {дождь} 10/8 360 м
[Frnb As trans]
+25.2 +24.6 96 +35 +36 очень
душно
1007.0 999.3 +23.3 39
06 16.09 СЗ 3 4000 м {дождь} 8/8 360 м
[Frnb]
+28.0 +24.9 83 +40 +43 очень
душно
1007.0 999.4 0.2
09 16.09 СЗ 6 10 км 6/5 360 м
[Frnb Ac trans]
+29.8 +25.9 80 +45 +48 опасность
перегрева
1004.2 996.6 0.2
12 16.09 С 4 10 км 9/6 540 м
[Cu Sc Ac trans]
+28.2 +25.7 86 +42 +42 опасность
перегрева
1003.6 996.0 +30.1 0.2
15 16.09 С 3 4000 м в посл. час дождь 6/6 540 м
[Sc diur, vesp]
+26.2 +25.1 94 +38 +38 очень
душно
1004.8 997.1 2
18 16.09 С 2 4000 м {дождь} 8/6 540 м
[Sc diur, vesp Ac trans]
+26.4 +25.3 94 +38 +38 очень
душно
1005.6 997.9 2

 

Местоположение метеостанции Ратнагири (Махараштра, Индия): широта 16.98 долгота 73.33 высота над уровнем моря 67 м.

В архиве по умолчанию представлена погода в Ратнагири за последнюю неделю. Архивные данные за месяц целиком и за предыдущие месяцы, начиная с января 2011 года, Вы можете получить, выбрав интересующий диапазон дат из раскрывающегося списка и нажав кнопку "Ввод!".


*Определитесь, кто Вы:
робот инопланетянин человек

Внимание! Время в таблицах - всемирное. Для получения местного времени необходимо прибавить поправку, которая равна 5.5 ч.

Смотрите также архив погоды в соседних городах и на ближайших метеорологических станциях:

Погода в Харнае (Махараштра, Индия) (97 км)
Погода в Сатаре (Махараштра, Индия) (97 км)
Погода в Колхапуре (Махараштра, Индия) (101 км)
Погода в Махабалешваре (Махараштра, Индия) (112 км)
Погода в Венгерле (Махараштра, Индия) (128 км)
Погода в Сангли (Махараштра, Индия) (136 км)
Погода в Байре (Махараштра, Индия) (164 км)
Погода в Панаджи (Гоа, Индия) (175 км)
Погода в Белгауме (Карнатака, Индия) (179 км)
Погода в Мормугао (Гоа, Индия) (180 км)

Пояснения к столбцам:

Ветер - указаны скорость ветра в м/с - средняя за 10 мин, порывы в срок и между сроками (в фигурных скобках) и направление, откуда дует ветер: С - северный, СВ - северо-восточный, В - восточный, ЮВ - юго-восточный, Ю - южный, ЮЗ - юго-западный, З - западный, СЗ - северо-западный.
Видимость - горизонтальная дальность видимости в метрах или километрах. При видимости от 1 до 10 км при отсутствии осадков обычно наблюдается дымка, при ухудшении видимости до 1 км и менее - туман. В сухую погоду видимость может ухудшаться дымом, пылью или мглою.
Явления - указаны атмосферные явления, наблюдавшиеся в срок или в последний час перед сроком; фигурными скобками обозначены явления, наблюдавшиеся между сроками (за 1-3 часа до срока); квадратными скобками обозначены град или гололедные отложения с указанием их диаметра в мм.
Облачность - указаны через наклонную черту общая и нижняя облачность в баллах и высота нижней границы облаков в метрах; квадратными скобками обозначены формы облаков: Ci - перистые, Cs - перисто-слоистые, Cc - перисто-кучевые, Ac - высококучевые, As - высокослоистые, Sc - слоисто-кучевые, Ns - слоисто-дождевые, Cu - кучевые, Cb - кучево-дождевые. Подробнее классификацию облаков см. в Атласе облаков (PDF).
T - Температура воздуха - температура, измеренная на высоте 2 м над землей.
Td - Температура точки росы - температура, при понижении до которой содержащийся в воздухе водяной пар достигнет насыщения.
f - Относительная влажность воздуха - влажноcть воздуха, измеренная на высоте 2 м над землей.
Te - Эффективная температура - температура, которую ощущает одетый по сезону человек в тени. Характеристика душности погоды. При расчете учитывается влияние влажности воздуха и скорости ветра на теплоощущения человека.
Tes - Эффективная температура на солнце - температура, которую ощущает человек, с поправкой на солнечный нагрев. Характеристика знойности погоды. Зависит от высоты солнца над горизонтом, облачности и скорости ветра. Ночью, в пасмурную погоду, а также при ветре 12 м/с и более поправка равна нулю.
P - Атмосферное давление - приведенное к уровню моря атмосферное давление.
Po - Атмосферное давление - измеренное на уровне метеостанции атмосферное давление.
Tmin - Минимальная температура - минимум температуры воздуха на высоте 2 м над землей.
Tmax - Максимальная температура - максимум температуры воздуха на высоте 2 м над землей.
R - Количество осадков - Количество выпавших осадков за период времени, мм. При наведении курсора мыши на число - период времени, за который выпало указанное количество осадков.
R24 - Количество осадков - Количество выпавших осадков за 24 часа, мм.
S - Снежный покров - Высота снежного покрова, см. При наведении курсора мыши на число - состояние снежного покрова и степень покрытия местности в баллах.